Date String (YYYY-MM-DD hh:mm:ss) UTC,Instrument flags,absolute air pressure of the measurement (hPa),sample flow rate (lpm),inlet stack bypass flow (lpm),air temperature of the measurement (°C),ambient temperature measured by the external sensor (°C),aerosol sample conditioner tube jacket temperature (°C),OPC LED temperature (°C),internal box temperature (°C),relative humidity of the measurement (%),span deviation,mass concentration of particles derived from Lorenz-Mie calculation of OPC scattering (μg/m³),mass concentration of particles derived from Lorenz-Mie calculation of OPC scattering (μg/m³),mass concentration of particles derived from Lorenz-Mie calculation of OPC scattering (μg/m³)
DateTimeUTC,F1_M11,P_M11,Q1_M11,Q2_M11,T1_M11,T2_M11,T3_M11,T4_M11,T5_M11,U1_M11,ZSPAN_M11,X2_M11,X0_M11,X1_M11
2024-06-13 11:00:00,SystemResetWarning,0829.2,5.00,000.00,030.6,030.0,000.0,038.7,032.2,015.4,0000.0,0004.58,0010.21,0003.87
2024-06-13 11:01:00,SystemResetWarning,0829.2,5.00,000.00,030.6,030.0,000.0,038.7,032.3,015.2,0000.0,0004.58,0009.70,0003.85
2024-06-13 11:02:00,SystemResetWarning,0829.2,4.99,000.00,030.6,030.1,000.0,038.8,032.3,015.3,0000.0,0004.61,0008.70,0003.85
2024-06-13 11:03:00,SystemResetWarning,0829.2,4.99,000.00,030.7,030.1,000.0,038.8,032.3,015.0,0000.0,0004.63,0009.26,0003.84
2024-06-13 11:04:00,SystemResetWarning,0829.3,4.99,000.00,030.7,030.1,000.0,038.8,032.3,015.0,0000.0,0004.65,0009.66,0003.84
2024-06-13 11:05:00,SystemResetWarning,0829.3,5.01,000.00,030.7,030.1,000.0,038.8,032.4,015.2,0000.0,0004.65,0010.21,0003.83
2024-06-13 11:06:00,SystemResetWarning,0829.3,5.01,000.00,030.7,030.2,000.0,038.9,032.4,015.2,0000.0,0004.60,0010.41,0003.82
2024-06-13 11:07:00,SystemResetWarning,0829.2,5.00,000.00,030.7,029.3,000.0,038.9,032.0,015.0,0000.0,0004.55,0010.25,0003.80
2024-06-13 11:08:00,SystemResetWarning,0829.1,5.00,000.00,030.3,026.9,000.0,039.0,030.9,015.2,0000.0,0004.56,0010.27,0003.79
2024-06-13 11:09:00,SystemResetWarning,0829.1,5.01,000.00,029.9,026.6,000.0,038.9,030.6,015.6,0000.0,0004.54,0010.26,0003.79
2024-06-13 11:10:00,SystemResetWarning,0829.1,5.00,000.00,029.8,027.0,000.0,038.8,030.7,015.6,0000.0,0004.54,0010.22,0003.79
2024-06-13 11:11:00,SystemResetWarning,0829.2,5.00,000.00,029.8,027.4,000.0,038.7,030.9,015.7,0000.0,0004.56,0010.29,0003.80
2024-06-13 11:12:00,SystemResetWarning,0829.2,5.00,000.00,029.8,027.8,000.0,038.6,031.1,015.6,0000.0,0004.60,0010.38,0003.80
2024-06-13 11:13:00,SystemResetWarning,0829.2,5.00,000.00,029.8,028.1,000.0,038.5,031.3,015.5,0000.0,0004.56,0010.29,0003.80
2024-06-13 11:14:00,SystemResetWarning,0829.2,5.00,000.00,029.9,028.4,000.0,038.4,031.4,015.4,0000.0,0004.54,0009.91,0003.79
2024-06-13 11:15:00,SystemResetWarning,0829.3,5.00,000.00,029.9,028.6,000.0,038.4,031.5,015.4,0000.0,0004.57,0009.57,0003.79
2024-06-13 11:16:00,SystemResetWarning,0829.2,5.00,000.00,029.9,028.8,000.0,038.4,031.6,015.3,0000.0,0004.57,0008.99,0003.80
2024-06-13 11:17:00,SystemResetWarning,0829.3,5.00,000.00,030.0,029.0,000.0,038.4,031.6,015.4,0000.0,0004.56,0008.60,0003.80
2024-06-13 11:18:00,SystemResetWarning,0829.2,5.00,000.00,030.0,029.1,000.0,038.4,031.7,015.4,0000.0,0004.56,0008.54,0003.81
2024-06-13 11:19:00,SystemResetWarning,0829.3,5.00,000.00,030.0,029.2,000.0,038.4,031.7,015.4,0000.0,0004.55,0008.49,0003.81
2024-06-13 11:20:00,SystemResetWarning,0829.3,5.00,000.00,030.1,029.3,000.0,038.4,031.8,015.3,0000.0,0004.51,0008.32,0003.80
2024-06-13 11:21:00,SystemResetWarning,0829.3,5.00,000.00,030.1,029.4,000.0,038.4,031.8,015.4,0000.0,0004.48,0008.24,0003.79
2024-06-13 11:22:00,SystemResetWarning,0829.4,5.00,000.00,030.2,029.5,000.0,038.4,031.9,015.4,0000.0,0004.46,0008.42,0003.78
2024-06-13 11:23:00,SystemResetWarning,0829.4,5.00,000.00,030.2,029.5,000.0,038.4,031.9,015.3,0000.0,0004.41,0008.53,0003.77
2024-06-13 11:24:00,SystemResetWarning,0829.3,5.00,000.00,030.2,029.6,000.0,038.4,032.0,015.2,0000.0,0004.40,0008.95,0003.76
2024-06-13 11:25:00,SystemResetWarning,0829.3,5.00,000.00,030.3,029.7,000.0,038.5,032.0,015.2,0000.0,0004.39,0009.60,0003.76
2024-06-13 11:26:00,SystemResetWarning,0829.3,5.00,000.00,030.3,029.7,000.0,038.5,032.0,015.6,0000.0,0004.37,0009.58,0003.75
2024-06-13 11:27:00,SystemResetWarning,0829.3,5.00,000.00,030.4,029.8,000.0,038.5,032.1,016.0,0000.0,0004.34,0009.46,0003.74
2024-06-13 11:28:00,SystemResetWarning,0829.3,5.00,000.00,030.4,029.8,000.0,038.5,032.1,015.1,0000.0,0004.36,0010.16,0003.75
2024-06-13 11:29:00,SystemResetWarning,0829.3,5.00,000.00,030.4,029.8,000.0,038.6,032.1,015.0,0000.0,0004.37,0010.17,0003.75
2024-06-13 11:30:00,SystemResetWarning,0829.3,4.99,000.00,030.5,029.9,000.0,038.6,032.2,015.1,0000.0,0004.37,0010.19,0003.75
2024-06-13 11:31:00,SystemResetWarning,0829.3,5.00,000.00,030.5,029.9,000.0,038.6,032.2,015.3,0000.0,0004.40,0010.26,0003.76
2024-06-13 11:32:00,SystemResetWarning,0829.4,4.99,000.00,030.5,029.9,000.0,038.7,032.2,015.4,0000.0,0004.38,0010.27,0003.75
2024-06-13 11:33:00,SystemResetWarning,0829.4,5.00,000.00,030.6,030.0,000.0,038.7,032.2,015.5,0000.0,0004.37,0010.11,0003.75
2024-06-13 11:34:00,SystemResetWarning,0829.4,5.01,000.00,030.6,030.0,000.0,038.7,032.3,015.4,0000.0,0004.37,0009.99,0003.75
2024-06-13 11:35:00,SystemResetWarning,0829.5,5.00,000.00,030.6,030.0,000.0,038.8,032.3,015.6,0000.0,0004.42,0010.09,0003.76
2024-06-13 11:36:00,SystemResetWarning,0829.5,5.01,000.00,030.6,030.1,000.0,038.8,032.3,015.6,0000.0,0004.44,0009.34,0003.77
2024-06-13 11:37:00,SystemResetWarning,0829.5,5.00,000.00,030.7,030.1,000.0,038.8,032.4,015.7,0000.0,0004.44,0009.92,0003.78
2024-06-13 11:38:00,SystemResetWarning,0829.5,5.00,000.00,030.7,030.1,000.0,038.8,032.4,015.6,0000.0,0004.47,0010.20,0003.80
2024-06-13 11:39:00,SystemResetWarning,0829.6,5.00,000.00,030.7,030.2,000.0,038.9,032.4,015.5,0000.0,0004.46,0009.44,0003.81
2024-06-13 11:40:00,SystemResetWarning,0829.6,5.00,000.00,030.8,030.2,000.0,038.9,032.4,015.3,0000.0,0004.45,0009.41,0003.81
2024-06-13 11:41:00,SystemResetWarning,0829.6,5.00,000.00,030.8,030.2,000.0,038.9,032.5,015.2,0000.0,0004.46,0009.92,0003.81
2024-06-13 11:42:00,SystemResetWarning,0829.7,4.99,000.00,030.8,030.2,000.0,038.9,032.5,015.1,0000.0,0004.51,0010.52,0003.82
2024-06-13 11:43:00,SystemResetWarning,0829.7,4.99,000.00,030.8,030.3,000.0,039.0,032.5,015.1,0000.0,0004.53,0011.47,0003.83
2024-06-13 11:44:00,SystemResetWarning,0829.6,4.99,000.00,030.7,028.9,000.0,039.0,031.8,015.3,0000.0,0004.51,0011.61,0003.83
2024-06-13 11:45:00,SystemResetWarning,0829.5,5.01,000.00,030.3,026.7,000.0,039.0,030.9,015.6,0000.0,0004.49,0011.73,0003.83
2024-06-13 11:46:00,SystemResetWarning,0829.5,5.02,000.00,030.0,026.7,000.0,039.0,030.7,015.8,0000.0,0004.47,0011.23,0003.85
2024-06-13 11:47:00,SystemResetWarning,0829.6,4.99,000.00,029.9,027.1,000.0,038.8,030.8,015.8,0000.0,0004.48,0011.12,0003.86
2024-06-13 11:48:00,SystemResetWarning,0829.6,4.99,000.00,029.9,027.5,000.0,038.7,031.1,015.9,0000.0,0004.50,0011.44,0003.87
2024-06-13 11:49:00,SystemResetWarning,0829.7,5.00,000.00,029.9,027.9,000.0,038.6,031.2,016.1,0000.0,0004.49,0011.14,0003.87
2024-06-13 11:50:00,SystemResetWarning,0829.7,5.01,000.00,029.9,028.2,000.0,038.5,031.4,016.3,0000.0,0004.55,0011.88,0003.88
2024-06-13 11:51:00,SystemResetWarning,0829.7,5.00,000.00,029.9,028.5,000.0,038.5,031.5,016.5,0000.0,0004.56,0013.20,0003.89
2024-06-13 11:52:00,SystemResetWarning,0829.7,5.00,000.00,029.9,028.7,000.0,038.5,031.5,016.6,0000.0,0004.58,0013.15,0003.91
2024-06-13 11:53:00,SystemResetWarning,0829.7,5.01,000.00,030.0,028.9,000.0,038.5,031.6,016.5,0000.0,0004.58,0012.93,0003.94
2024-06-13 11:54:00,SystemResetWarning,0829.7,5.00,000.00,030.0,029.0,000.0,038.4,031.7,016.4,0000.0,0004.59,0012.66,0003.97
2024-06-13 11:55:00,SystemResetWarning,0829.7,5.00,000.00,030.1,029.2,000.0,038.4,031.7,016.3,0000.0,0004.64,0011.99,0004.00
2024-06-13 11:56:00,SystemResetWarning,0829.7,5.00,000.00,030.1,029.3,000.0,038.4,031.8,016.2,0000.0,0004.68,0011.92,0004.04
2024-06-13 11:57:00,SystemResetWarning,0829.7,5.00,000.00,030.1,029.4,000.0,038.5,031.9,016.2,0000.0,0004.72,0012.00,0004.05
2024-06-13 11:58:00,SystemResetWarning,0829.7,5.00,000.00,030.2,029.5,000.0,038.5,031.9,016.1,0000.0,0004.76,0012.31,0004.07
2024-06-13 11:59:00,SystemResetWarning,0829.7,5.01,000.00,030.2,029.6,000.0,038.5,031.9,016.1,0000.0,0004.78,0011.99,0004.08
